Location: Newark
(13.8117°N, 3.6025°W)
Time: 15:34:46
(UTC+00:00)

Transit 2A Rocket - Visible Passes

Search period start: 21 August 2019 00:00
Search period end: 31 August 2019 00:00
Orbit: 590 x 913 km, 66.7° (Epoch: 20 August)

Date Brightness Start Highest point End Pass type
(mag) Time Alt. Az. Time Alt. Az. Time Alt. Az.
22 Aug 6.0 05:10:43 10° N 05:14:45 39° ENE 05:18:45 10° SE visible
22 Aug 8.3 19:31:27 10° WSW 19:34:59 16° WNW 19:38:26 10° NNW visible
23 Aug 7.5 04:29:20 10° NNE 04:32:12 17° ENE 04:35:04 10° ESE visible
23 Aug 7.5 18:47:10 10° SW 18:52:24 31° WNW 18:57:26 10° N visible
24 Aug 4.7 05:28:01 10° NW 05:32:06 45° WSW 05:36:12 10° S visible
25 Aug 4.7 04:45:24 10° NNW 04:49:40 72° ENE 04:53:57 10° SSE visible
26 Aug 6.4 04:03:26 10° N 04:07:11 29° ENE 04:10:56 10° SE visible
27 Aug 7.5 03:24:04 13° ENE 03:24:37 13° ENE 03:26:40 10° E visible
27 Aug 5.4 05:04:54 18° WNW 05:06:58 25° WSW 05:10:32 10° SSW visible
28 Aug 6.9 04:28:39 11° S 04:28:39 11° S 04:28:49 10° S visible
